Hagerstown, MD

10:57 AM EDT on October 16, 2019 (GMT -0400)
Hagerstown Regional-Henson

Weather History for KHGR - August, 2019

Change the Weather History Date:

Sunday, August 25, 2019

  Actual Average Record
Temperature  
Mean Temperature 69 °F 72 °F  
Max Temperature 78 °F 82 °F 94 °F (2007)
Min Temperature 59 °F 63 °F 54 °F (2005)
Degree Days  
Heating Degree Days 0 0  
Month to date heating degree days 0 0  
Since 1 June heating degree days 5 18  
Since 1 July heating degree days 0 0  
Cooling Degree Days 4 7  
Month to date cooling degree days 301 221  
Year to date cooling degree days 1168 827  
Since 1 June cooling degree days 986 751  
Growing Degree Days 19 (Base 50)    
Moisture  
Dew Point 52 °F    
Average Humidity 59    
Maximum Humidity 78    
Minimum Humidity 39    
Precipitation  
Precipitation 0.00 in 0.11 in 0.93 in (1999)
Month to date precipitation 2.28 2.53  
Year to date precipitation 28.25 26.02  
Sea Level Pressure  
Sea Level Pressure 30.24 in    
Wind  
Wind Speed 7 mph (NE)    
Max Wind Speed 16 mph    
Max Gust Speed 19 mph    
Visibility 10 miles    
Events      
T = Trace of Precipitation, MM = Missing Value Source: NWS Daily Summary

Daily Weather History Graph

Daily Weather History Graph

Search for Another Location

Airport or City:

Astronomy

Aug. 25, 2019 Rise Set
Actual Time 6:32 AM EDT 7:53 PM EDT
Civil Twilight 6:04 AM EDT 8:21 PM EDT
Nautical Twilight 5:30 AM EDT 8:54 PM EDT
Astronomical Twilight 4:54 AM EDT 9:30 PM EDT
Moon 1:06 AM EDT (8/25) 4:11 PM EDT (8/25)
Length of Visible Light 14h 17m
Length of Day
13h 20m
Waning Crescent, 29% of the Moon is Illuminated
Aug 25
Waning Crescent
Aug 30
New
Sep 5
First Quarter
Sep 14
Full
Sep 21
Last Quarter

Hourly Weather History & Observations

Time (EDT) Temp. Dew Point Humidity Pressure Visibility Wind Dir Wind Speed Gust Speed Precip Events Conditions
12:53 AM 60.1 °F 54.0 °F 80% 30.26 in 10.0 mi West 3.5 mph - N/A   Scattered Clouds
1:53 AM 61.0 °F 53.1 °F 75% 30.25 in 10.0 mi NNW 6.9 mph - N/A   Overcast
2:53 AM 60.1 °F 53.1 °F 78% 30.24 in 10.0 mi NW 4.6 mph - N/A   Overcast
3:53 AM 60.1 °F 53.1 °F 78% 30.23 in 10.0 mi West 5.8 mph - N/A   Overcast
4:53 AM 61.0 °F 52.0 °F 72% 30.24 in 10.0 mi NNW 5.8 mph - N/A   Overcast
5:53 AM 61.0 °F 52.0 °F 72% 30.24 in 10.0 mi North 5.8 mph - N/A   Overcast
6:53 AM 60.1 °F 52.0 °F 75% 30.26 in 10.0 mi North 8.1 mph - N/A   Partly Cloudy
7:53 AM 62.1 °F 51.1 °F 67% 30.29 in 10.0 mi North 9.2 mph - N/A   Clear
8:53 AM 66.9 °F 53.1 °F 61% 30.28 in 10.0 mi Variable 5.8 mph - N/A   Clear
9:53 AM 70.0 °F 55.0 °F 59% 30.28 in 10.0 mi ENE 5.8 mph - N/A   Clear
10:53 AM 71.1 °F 52.0 °F 51% 30.27 in 10.0 mi East 11.5 mph - N/A   Clear
11:53 AM 72.0 °F 51.1 °F 48% 30.27 in 10.0 mi Variable 6.9 mph - N/A   Scattered Clouds
12:53 PM 75.0 °F 51.1 °F 43% 30.25 in 10.0 mi NE 10.4 mph - N/A   Mostly Cloudy
1:53 PM 77.0 °F 52.0 °F 42% 30.23 in 10.0 mi ENE 11.5 mph - N/A   Partly Cloudy
2:53 PM 77.0 °F 51.1 °F 40% 30.22 in 10.0 mi ENE 9.2 mph - N/A   Scattered Clouds
3:53 PM 78.1 °F 52.0 °F 40% 30.21 in 10.0 mi East 11.5 mph - N/A   Mostly Cloudy
4:53 PM 75.0 °F 51.1 °F 43% 30.21 in 10.0 mi East 9.2 mph 19.6 mph N/A   Mostly Cloudy
5:53 PM 75.9 °F 50.0 °F 40% 30.21 in 10.0 mi East 9.2 mph - N/A   Clear
6:53 PM 73.9 °F 52.0 °F 46% 30.21 in 10.0 mi East 6.9 mph - N/A   Clear
7:53 PM 71.1 °F 52.0 °F 51% 30.20 in 10.0 mi East 5.8 mph - N/A   Clear
8:53 PM 66.9 °F 53.1 °F 61% 30.20 in 10.0 mi East 4.6 mph - N/A   Clear
9:53 PM 66.9 °F 53.1 °F 61% 30.22 in 10.0 mi East 4.6 mph - N/A   Clear
10:53 PM 66.0 °F 53.1 °F 63% 30.22 in 10.0 mi ESE 6.9 mph - N/A   Clear
11:53 PM 66.0 °F 53.1 °F 63% 30.22 in 10.0 mi SE 4.6 mph - N/A   Clear